Location: Unspecified
(33.6682°S, 0.0000°E)
Time: 16:34:19
(UTC+00:00)

deb Explorer IX - Visible Passes

Search period start: 17 June 2019 00:00
Search period end: 27 June 2019 00:00
Orbit: 537 x 1115 km, 38.8° (Epoch: 16 June)

Date Brightness Start Highest point End Pass type
(mag) Time Alt. Az. Time Alt. Az. Time Alt. Az.
17 Jun ? 04:21:45 21° ESE 04:21:45 21° ESE 04:23:19 10° ESE visible
17 Jun ? 06:03:09 18° WSW 06:06:07 43° S 06:10:53 10° ESE visible
18 Jun ? 04:01:17 11° ESE 04:01:17 11° ESE 04:01:33 10° ESE visible
18 Jun ? 05:42:40 28° SW 05:44:26 43° S 05:49:01 10° ESE visible
19 Jun ? 05:22:09 39° SSW 05:22:45 42° S 05:27:11 10° ESE visible
20 Jun ? 05:01:37 39° SSE 05:01:37 39° SSE 05:05:23 10° ESE visible
21 Jun ? 04:41:04 28° SE 04:41:04 28° SE 04:43:35 10° ESE visible
21 Jun ? 06:22:27 11° WSW 06:26:34 73° SSE 06:31:29 10° ENE visible
22 Jun ? 04:20:30 18° ESE 04:20:30 18° ESE 04:21:48 10° ESE visible
22 Jun ? 06:01:54 19° WSW 06:04:52 74° SSE 06:09:38 10° ENE visible
23 Jun ? 03:59:57 10° ESE 03:59:57 10° ESE 04:00:03 10° ESE visible
23 Jun ? 05:41:21 33° WSW 05:43:10 75° SSE 05:47:47 10° ENE visible
24 Jun ? 05:20:48 60° SW 05:21:28 77° SSE 05:25:58 10° ENE visible
25 Jun ? 05:00:16 66° E 05:00:16 66° E 05:04:09 10° ENE visible
26 Jun ? 04:39:47 35° ENE 04:39:47 35° ENE 04:42:22 10° ENE visible
26 Jun ? 06:21:15 10° W 06:24:41 24° NNW 06:28:23 10° NNE visible
